Voltar ao catálogo

STARLINK-33885

AtivoComunicaçõesVLEO
NORAD 63886·PAYLOAD·🇺🇸 United States

Lançado May 10, 2025 de Vandenberg Space Force Base

Loading…

Próximas Passagens (próximas 24 horas)

TLE

AtualizadoSource: CelesTrak SupGP

Época: Sep 15, 2026, 03:16 UTC

1 63886C 25094Y   26258.13659722 -.00014883  00000+0 -51779-3 0  2584
2 63886  69.9986 115.2071 0003020 272.9332 327.2504 15.29582247    19

Acompanhe STARLINK-33885 em tempo real com AllMySat

Download on the App Store